101  
ASUS43 KLMK 271310  
RWRKY  
KENTUCKY REGIONAL WEATHER ROUNDUP  
NATIONAL WEATHER SERVICE LOUISVILLE KY  
900 AM EDT TUE SEP 27 2016  
 
NOTE "FAIR" INDICATES FEW OR NO CLOUDS BELOW 12,000 FEET  
WITH NO SIGNIFICANT WEATHER AND/OR S TO VISIBILITY
.  
 
KYZ001>023-026-027-061>063-070>075-271400-  
WESTERN AND SOUTH CENTRAL KENTUCKY  
 
CITY SKY/WX TMP DP RH WIND PRES REMARKS
 
PADUCAH SUNNY 51 48 89 CALM 30.05R  
HENDERSON SUNNY 54 48 82 CALM 30.03S  
OWENSBORO SUNNY N/A N/A N/A VRB3 30.04S  
HOPKINSVILLE FOG 54 54 100 CALM 30.05R VSB<1/4  
BOWLING GREEN MOSUNNY 52 51 97 CALM 30.06S  
GLASGOW FOG 49 49 100 CALM 30.05S VSB<1/4  

 
 
KYZ024-025-028>034-038-045-046-053-271400-  
NORTH CENTRAL KENTUCKY  
 
CITY SKY/WX TMP DP RH WIND PRES REMARKS
 
LOUISVILLE/SDF MOSUNNY 56 49 77 S5 30.03R  
LOUISVILLE/LOU SUNNY 54 50 86 S3 30.03S  
FORT KNOX SUNNY 52 52 99 S3 30.02S  

 
 
KYZ035>037-039>044-047>052-055>060-089>105-271400-  
NORTHEAST KENTUCKY  
 
CITY SKY/WX TMP DP RH WIND PRES REMARKS
 
LEXINGTON SUNNY 54 51 90 S5 30.04S  
COVINGTON SUNNY 53 51 93 S6 30.00S  
FRANKFORT SUNNY 54 51 90 SW5 30.03R  

 
 
KYZ054-064>069-076>088-106>120-271400-  
SOUTHEAST KENTUCKY  
 
CITY SKY/WX TMP DP RH WIND PRES REMARKS
 
JACKSON FOG 52 52 100 CALM 30.04F VSB<1/4  
LONDON PTSUNNY 50 48 93 CALM 30.05F FOG  
SOMERSET FOG 50 50 100 CALM 30.07S VSB<1/4  
MIDDLESBORO MOSUNNY 60 50 70 NW3 30.05S  
MONTICELLO FOG 52 52 100 N8 30.07F VSB<1/4  

 
 
 
 
CLICK HERE TO GO TO PREVIOUS BULLETINS.

The Nexlab KY Page Main Text Page